Temp
66 66 64 64 55 50 44 47 51 54 54 56 61 59 59 57 57 51 63 67 67 67 68 71 73 74 75 75 75 75 75 76 76 76 75 75 75 75 75 74 74 74 75 74 74 74 73 73 72
64 68 65 56 49 43 45 47 53 55 58 59 60 58 57 54 59 64 64 68 68 67 68 69 72 74 74 75 74 75 75 75 76 76 75 76 75 75 75 74 74 74 74 74 73 73 72 72 72
69 69 62 52 44 44 45 50 54 56 59 58 56 58 57 56 60 66 66 68 67 66 67 69 71 74 74 74 74 74 74 75 75 75 75 75 75 75 75 74 74 74 74 74 73 72 72 71 71
67 65 59 51 45 49 49 52 56 57 57 59 58 55 57 63 64 66 68 67 66 65 67 69 72 73 74 74 74 74 74 74 75 75 75 75 75 75 74 74 73 73 74 73 73 72 71 71 71
63 58 50 45 46 48 51 54 55 56 56 55 57 54 54 61 66 67 66 67 65 64 66 68 71 72 73 73 73 73 74 74 74 74 75 75 74 74 74 74 73 73 73 73 72 71 70 70 70
59 56 47 44 46 50 50 55 56 54 56 54 55 54 54 61 65 66 67 64 65 64 65 67 67 69 71 72 72 72 73 73 73 74 74 74 73 73 73 73 73 73 73 72 71 71 70 70 70
56 52 46 44 47 50 56 57 55 56 55 56 60 53 53 62 64 65 65 64 64 64 64 66 68 67 67 69 70 71 72 72 72 72 72 72 71 71 72 71 72 73 73 73 72 71 70 70 70
55 53 47 45 48 50 55 57 58 58 56 57 58 53 51 61 64 64 64 63 63 63 63 65 66 66 66 66 66 67 68 69 70 70 68 67 67 68 68 67 69 71 72 72 71 71 71 70 70
57 49 45 49 50 52 53 55 56 59 58 56 58 57 57 63 63 62 61 62 62 63 62 63 63 64 64 64 64 64 65 66 66 66 65 64 64 64 64 64 65 69 70 70 71 71 70 68 67
53 47 51 55 55 52 55 55 59 56 55 55 55 58 60 62 62 60 61 61 62 62 61 62 62 63 63 66 64 63 64 64 64 64 64 63 62 62 63 61 62 64 65 67 69 69 68 64 60
51 49 54 56 57 58 56 55 57 57 53 59 59 57 59 61 61 60 60 61 62 61 62 62 62 63 62 63 62 62 61 61 62 63 63 62 62 60 60 59 59 59 59 59 61 61 60 60 59
50 53 54 57 57 57 56 58 56 57 57 59 62 60 61 61 61 61 60 60 61 61 63 63 63 63 62 63 62 61 61 60 60 61 61 60 60 59 58 58 58 58 58 58 58 58 58 58 58
50 52 54 55 55 55 58 54 56 56 57 59 60 60 61 61 62 62 63 63 62 62 63 63 63 63 63 62 62 61 60 60 61 60 60 60 59 58 58 58 57 57 58 57 57 57 58 57 58
54 53 51 53 53 54 54 52 56 55 56 57 59 58 59 60 62 61 61 62 62 64 63 64 64 64 63 62 61 61 60 61 60 60 60 60 60 59 58 58 58 58 58 58 58 58 57 57 57
54 50 49 49 51 51 54 51 53 54 55 56 57 57 58 59 61 62 63 63 64 65 65 64 65 64 63 63 62 62 62 62 61 61 61 61 61 60 60 59 58 59 59 59 58 58 57 57 57
48 47 42 47 51 51 51 45 52 54 53 55 55 54 56 59 60 61 62 63 63 64 64 64 68 65 64 64 63 62 62 62 62 61 61 61 62 61 59 59 59 59 59 58 57 57 57 56 56
42 36 39 44 50 48 48 45 50 51 51 53 52 53 54 56 58 59 61 61 62 63 63 63 65 65 64 65 64 63 62 62 62 62 62 62 62 62 61 60 61 60 59 58 60 61 60 60 61
36 37 38 41 45 45 43 46 47 48 48 47 50 51 52 54 57 59 60 61 61 61 62 62 63 64 63 63 62 61 61 62 62 63 63 62 62 61 61 60 60 60 58 59 62 61 62 62 62
43 41 38 39 44 43 42 44 48 49 46 48 50 51 52 54 56 58 58 57 58 59 59 60 60 61 61 59 59 58 61 61 62 62 62 62 62 62 60 60 59 59 60 63 63 62 60 60 60
42 39 37 40 44 43 38 42 46 48 49 51 52 52 53 51 53 56 55 54 56 56 56 57 59 60 61 61 60 60 60 60 60 61 60 61 61 61 61 61 60 60 60 60 60 61 59 59 60
39 39 38 40 41 40 37 39 42 45 45 48 50 50 51 53 53 54 56 54 53 53 51 53 54 56 57 60 59 58 59 58 58 58 59 60 61 61 61 61 60 60 60 60 60 60 60 59 59
38 45 44 42 38 33 37 29 38 39 43 46 49 48 49 48 48 51 51 49 48 49 49 51 53 54 56 56 57 57 59 58 57 59 59 60 61 60 60 60 60 60 61 61 61 60 60 59 58
42 46 44 40 35 31 30 29 35 38 42 49 44 45 47 47 47 47 48 48 45 47 47 48 50 51 52 52 53 54 55 56 56 57 57 58 58 59 59 59 59 59 61 60 59 60 60 59 58
47 43 41 38 34 23 31 32 30 39 44 42 43 43 44 44 45 46 46 47 47 46 47 48 49 48 49 50 50 51 51 52 53 54 55 55 54 53 54 57 57 57 58 57 58 59 59 58 58
43 39 27 26 25 24 30 29 34 42 45 45 47 44 44 44 45 45 46 47 47 46 46 48 47 47 47 48 48 48 49 51 52 53 53 53 51 51 51 52 52 52 52 53 53 52 51 50 50
39 39 29 21 19 25 31 29 36 42 45 46 49 49 46 45 46 46 46 46 46 46 46 46 46 47 46 47 47 47 47 48 49 50 51 52 50 49 50 49 50 50 50 49 49 48 47 47 46
38 33 40 30 22 22 27 32 41 41 42 42 45 47 47 46 46 45 45 46 46 46 46 46 46 46 46 46 45 46 46 47 46 46 47 46 47 49 48 48 47 46 46 46 46 44 43 44 43
39 43 33 29 17 16 25 27 32 39 41 41 43 45 46 47 46 46 46 46 46 45 45 44 45 45 44 44 44 44 44 44 45 45 45 45 45 45 45 45 45 44 44 44 43 42 42 42 42
36 35 37 37 31 23 20 28 37 39 42 42 44 45 45 46 47 47 46 46 45 44 43 43 43 44 44 44 43 43 42 43 43 43 43 43 43 43 44 43 43 42 42 41 41 40 40 40 40
39 36 37 29 25 26 28 28 41 41 41 42 44 45 44 45 47 46 47 46 45 44 43 43 43 42 43 43 42 42 42 41 41 41 41 42 41 42 42 42 41 40 40 39 39 38 38 38 38
MSLP
1012.23 1012.21 1012.40 1012.74 1014.41 1015.17 1015.11 1014.89 1014.45 1014.30 1014.38 1014.37 1014.70 1015.21 1015.71 1016.19 1016.48 1017.34 1016.66 1016.88 1016.79 1017.54 1017.94 1018.20 1018.49 1018.72 1018.96 1019.18 1019.45 1019.67 1019.82 1019.97 1020.14 1020.29 1020.39 1020.53 1020.65 1020.74 1020.87 1021.00 1021.11 1021.21 1021.28 1021.39 1021.52 1021.64 1021.75 1021.82 1021.82
1012.17 1012.34 1012.77 1013.76 1014.89 1015.82 1015.41 1014.76 1014.53 1014.32 1014.43 1014.51 1014.74 1015.22 1015.63 1016.21 1016.25 1016.46 1016.83 1017.08 1017.07 1017.46 1017.90 1018.23 1018.54 1018.80 1019.04 1019.32 1019.51 1019.72 1019.92 1020.10 1020.26 1020.43 1020.59 1020.69 1020.83 1020.91 1021.08 1021.20 1021.33 1021.43 1021.55 1021.66 1021.74 1021.83 1021.95 1022.01 1022.02
1011.91 1012.22 1013.42 1014.44 1015.35 1015.65 1015.22 1014.48 1014.39 1014.33 1014.50 1014.44 1015.03 1015.40 1015.71 1016.11 1016.32 1016.37 1016.44 1016.96 1017.36 1017.80 1018.03 1018.32 1018.58 1018.79 1019.07 1019.37 1019.59 1019.82 1020.04 1020.22 1020.38 1020.55 1020.72 1020.87 1021.06 1021.15 1021.29 1021.21 1021.44 1021.59 1021.78 1021.89 1021.99 1022.09 1022.19 1022.23 1022.22
1012.19 1012.86 1014.24 1014.56 1015.11 1014.79 1014.60 1014.25 1014.21 1014.61 1014.64 1014.65 1014.93 1015.77 1015.90 1015.91 1016.04 1016.19 1016.54 1016.83 1017.51 1017.99 1018.22 1018.41 1018.61 1018.86 1019.13 1019.41 1019.69 1019.96 1020.17 1020.33 1020.49 1020.68 1020.85 1021.04 1021.30 1021.43 1021.50 1021.58 1021.73 1021.74 1021.98 1022.11 1022.23 1022.32 1022.39 1022.41 1022.40
1012.74 1013.68 1014.61 1014.97 1014.77 1014.41 1014.29 1014.13 1014.29 1014.48 1014.54 1014.77 1014.96 1015.70 1016.08 1016.05 1015.97 1016.28 1016.70 1017.11 1017.64 1018.17 1018.32 1018.52 1018.71 1018.97 1019.26 1019.51 1019.80 1020.06 1020.27 1020.48 1020.69 1020.87 1021.01 1021.15 1021.38 1021.62 1021.73 1021.85 1021.97 1022.08 1022.20 1022.35 1022.47 1022.55 1022.61 1022.62 1022.62
1013.52 1014.33 1015.06 1015.19 1014.67 1014.12 1013.96 1013.94 1014.27 1014.43 1014.62 1014.98 1015.30 1015.79 1016.21 1016.25 1016.30 1016.63 1016.91 1017.31 1017.72 1018.24 1018.53 1018.77 1018.93 1019.10 1019.36 1019.64 1019.89 1020.17 1020.38 1020.56 1020.77 1020.96 1021.16 1021.35 1021.53 1021.72 1021.88 1021.97 1022.08 1022.23 1022.37 1022.49 1022.65 1022.75 1022.78 1022.78 1022.78
1013.85 1014.65 1015.03 1014.93 1014.59 1014.08 1013.75 1013.84 1014.22 1014.40 1014.63 1014.85 1015.08 1015.96 1016.40 1016.47 1016.47 1016.79 1017.14 1017.52 1017.85 1018.36 1018.67 1018.95 1019.17 1019.33 1019.52 1019.78 1020.01 1020.23 1020.41 1020.52 1020.72 1020.99 1021.19 1021.41 1021.62 1021.82 1022.00 1022.13 1022.21 1022.30 1022.41 1022.51 1022.59 1022.74 1022.83 1022.87 1022.89
1013.97 1014.59 1015.08 1014.80 1014.56 1014.04 1013.64 1013.75 1013.64 1014.08 1014.52 1014.72 1014.85 1015.53 1016.02 1016.05 1016.51 1017.00 1017.50 1017.92 1018.33 1018.56 1018.84 1019.06 1019.28 1019.51 1019.77 1020.01 1020.17 1020.35 1020.53 1020.68 1020.84 1021.07 1021.30 1021.53 1021.73 1021.88 1022.04 1022.21 1022.33 1022.39 1022.45 1022.52 1022.56 1022.64 1022.75 1022.78 1022.81
1013.83 1014.70 1015.05 1014.49 1014.33 1013.83 1013.75 1013.68 1013.74 1013.88 1014.26 1014.61 1014.85 1015.15 1015.42 1015.71 1016.53 1017.30 1017.89 1018.34 1018.57 1018.79 1018.93 1019.13 1019.34 1019.57 1019.83 1020.08 1020.30 1020.45 1020.62 1020.76 1020.93 1021.15 1021.38 1021.60 1021.82 1021.96 1022.05 1022.18 1022.33 1022.45 1022.48 1022.52 1022.54 1022.59 1022.67 1022.72 1022.77
1014.17 1014.73 1014.33 1013.71 1013.65 1013.64 1013.67 1013.62 1013.70 1014.04 1014.36 1014.63 1014.90 1015.25 1015.60 1016.03 1016.59 1017.22 1017.68 1018.01 1018.40 1018.67 1018.87 1018.96 1019.29 1019.54 1019.82 1020.00 1020.27 1020.54 1020.69 1020.84 1021.00 1021.20 1021.38 1021.61 1021.84 1021.99 1022.07 1022.21 1022.27 1022.34 1022.46 1022.52 1022.50 1022.46 1022.50 1022.61 1022.74
1014.19 1014.26 1013.82 1013.64 1013.40 1013.46 1013.61 1013.69 1013.69 1013.98 1014.55 1014.21 1014.41 1015.21 1015.87 1016.29 1016.78 1017.26 1017.64 1017.86 1018.09 1018.46 1018.71 1018.83 1019.03 1019.31 1019.65 1019.91 1020.16 1020.45 1020.70 1020.94 1021.05 1021.18 1021.35 1021.55 1021.76 1021.98 1022.14 1022.25 1022.34 1022.37 1022.40 1022.51 1022.50 1022.51 1022.52 1022.53 1022.56
1014.04 1013.85 1013.72 1013.56 1013.49 1013.50 1013.56 1013.47 1013.63 1013.82 1013.78 1013.98 1014.11 1014.68 1015.59 1016.19 1016.52 1016.85 1017.31 1017.73 1018.02 1018.32 1018.49 1018.67 1018.88 1019.17 1019.40 1019.66 1019.94 1020.21 1020.56 1020.84 1021.04 1021.14 1021.33 1021.54 1021.75 1021.91 1022.09 1022.29 1022.29 1022.43 1022.33 1022.39 1022.38 1022.40 1022.31 1022.33 1022.29
1014.04 1013.88 1013.80 1013.68 1013.59 1013.56 1013.50 1013.65 1013.66 1013.72 1013.64 1013.89 1014.34 1015.00 1015.37 1015.98 1016.44 1016.71 1016.93 1017.31 1017.66 1017.95 1018.11 1018.33 1018.53 1018.84 1019.11 1019.47 1019.67 1019.93 1020.22 1020.44 1020.64 1020.92 1021.06 1021.30 1021.54 1021.69 1021.81 1021.93 1022.07 1022.09 1022.17 1022.19 1022.20 1022.23 1022.24 1022.23 1022.18
1013.99 1014.03 1014.04 1013.94 1013.87 1013.76 1013.80 1013.91 1013.81 1013.72 1013.85 1014.29 1014.79 1015.15 1015.50 1015.71 1015.99 1016.49 1016.79 1016.98 1017.22 1017.44 1017.64 1017.89 1018.26 1018.44 1018.81 1019.09 1019.43 1019.65 1019.84 1020.02 1020.31 1020.48 1020.67 1020.94 1021.12 1021.34 1021.49 1021.58 1021.69 1021.79 1021.83 1021.88 1021.90 1021.98 1021.97 1021.96 1021.96
1014.42 1014.62 1014.52 1014.34 1014.21 1014.02 1013.95 1014.23 1014.07 1013.95 1014.15 1014.64 1015.16 1015.53 1015.72 1015.87 1016.06 1015.97 1016.19 1016.48 1016.69 1016.78 1017.11 1017.47 1017.74 1017.97 1018.40 1018.69 1018.94 1019.26 1019.47 1019.61 1019.91 1020.04 1020.22 1020.45 1020.64 1020.84 1021.00 1021.13 1021.15 1021.19 1021.31 1021.47 1021.54 1021.54 1021.67 1021.73 1021.57
1015.14 1015.30 1015.27 1014.82 1014.55 1014.48 1014.49 1014.55 1014.26 1014.38 1014.60 1015.05 1015.41 1015.73 1015.84 1015.77 1015.68 1015.87 1015.96 1016.13 1016.30 1016.54 1016.79 1017.06 1017.27 1017.46 1017.79 1018.06 1018.41 1018.80 1019.09 1019.29 1019.43 1019.64 1019.75 1019.88 1020.05 1020.29 1020.56 1020.68 1020.60 1020.57 1020.87 1021.02 1021.16 1021.18 1021.32 1021.29 1021.17
1016.27 1016.13 1015.90 1015.43 1015.10 1015.04 1015.09 1015.19 1014.68 1014.79 1014.96 1015.40 1015.69 1015.89 1016.00 1015.97 1015.82 1015.67 1015.66 1015.77 1015.97 1016.10 1016.39 1016.58 1016.86 1017.07 1017.33 1017.56 1017.87 1018.18 1018.51 1018.80 1018.83 1019.00 1019.10 1019.23 1019.47 1019.68 1019.90 1020.04 1019.99 1020.08 1020.43 1020.60 1020.64 1020.74 1020.86 1020.76 1020.59
1016.51 1016.60 1016.20 1015.94 1015.86 1015.73 1015.81 1015.53 1015.32 1015.33 1015.44 1015.74 1015.93 1016.00 1016.17 1015.98 1015.59 1015.48 1015.41 1015.36 1015.55 1015.68 1015.91 1016.28 1016.56 1016.77 1017.08 1017.40 1017.75 1018.07 1018.24 1018.18 1018.19 1018.33 1018.43 1018.63 1018.91 1019.21 1019.48 1019.56 1019.64 1019.78 1020.10 1020.14 1020.03 1020.17 1020.21 1020.22 1020.07
1015.92 1016.24 1016.36 1016.44 1016.41 1016.36 1016.48 1016.06 1015.84 1015.74 1015.95 1016.07 1016.13 1016.08 1015.99 1015.87 1015.34 1015.23 1015.16 1015.16 1015.32 1015.60 1015.85 1016.02 1016.21 1016.26 1016.79 1017.33 1017.72 1017.97 1017.88 1017.85 1017.88 1017.78 1017.88 1018.13 1018.34 1018.60 1018.89 1019.13 1019.26 1019.46 1019.65 1019.55 1019.56 1019.72 1019.80 1019.75 1019.71
1016.36 1016.51 1016.79 1016.99 1016.90 1016.92 1017.23 1016.80 1016.17 1015.96 1015.65 1015.48 1015.68 1015.77 1015.64 1015.66 1015.48 1015.35 1015.29 1015.39 1015.60 1015.80 1015.94 1016.04 1016.16 1016.27 1016.34 1016.49 1016.68 1016.90 1017.10 1017.17 1017.17 1017.27 1017.56 1017.68 1017.83 1018.01 1018.31 1018.50 1018.73 1018.87 1019.17 1019.24 1019.32 1019.29 1019.52 1019.50 1019.37
1016.52 1016.61 1017.02 1017.36 1017.56 1017.67 1017.65 1017.11 1016.26 1015.72 1015.38 1015.15 1014.99 1015.08 1015.29 1015.40 1015.49 1015.54 1015.52 1015.58 1015.87 1016.16 1016.35 1016.40 1016.34 1016.31 1016.30 1016.41 1016.58 1016.81 1016.97 1017.06 1017.13 1017.15 1017.20 1017.03 1017.33 1017.48 1017.68 1017.82 1018.07 1018.32 1018.60 1018.71 1018.86 1018.95 1018.91 1019.12 1019.21
1016.60 1016.60 1017.05 1017.75 1018.31 1018.86 1018.66 1017.96 1016.62 1016.03 1015.70 1015.17 1014.67 1015.01 1014.98 1015.25 1015.40 1015.48 1015.64 1015.89 1016.13 1016.47 1016.69 1016.69 1016.63 1016.54 1016.40 1016.35 1016.48 1016.64 1016.77 1016.93 1016.74 1016.73 1016.78 1016.80 1016.87 1017.03 1017.23 1017.42 1017.66 1017.82 1017.97 1018.29 1018.40 1018.59 1018.64 1018.90 1019.00
1016.60 1016.73 1017.61 1018.51 1019.31 1019.68 1019.68 1019.52 1016.73 1016.21 1015.53 1014.64 1014.56 1014.98 1015.00 1015.07 1015.34 1015.66 1016.00 1016.31 1016.62 1016.71 1016.89 1016.92 1016.79 1016.79 1016.78 1016.66 1016.66 1016.76 1016.77 1016.72 1016.58 1016.64 1016.71 1016.72 1016.77 1016.78 1016.91 1017.08 1017.29 1017.56 1017.78 1017.90 1018.18 1018.28 1018.44 1018.64 1018.93
1016.86 1017.45 1018.46 1019.56 1020.31 1020.68 1020.07 1019.87 1017.66 1016.27 1015.12 1014.58 1014.56 1014.91 1015.31 1015.54 1015.71 1016.02 1016.21 1016.50 1016.77 1017.01 1017.01 1017.02 1017.02 1017.13 1017.00 1016.94 1016.81 1016.88 1016.88 1016.79 1016.75 1016.66 1016.74 1016.77 1016.97 1017.16 1017.25 1017.10 1017.21 1017.40 1017.53 1017.87 1018.03 1018.22 1018.42 1018.68 1018.90
1017.07 1017.89 1019.74 1020.81 1021.47 1021.00 1020.50 1020.37 1017.24 1015.58 1015.13 1014.83 1014.76 1015.04 1015.51 1015.88 1016.10 1016.28 1016.52 1016.73 1016.93 1017.14 1017.36 1017.32 1017.28 1017.34 1017.34 1017.28 1017.06 1017.04 1017.02 1016.85 1016.78 1016.69 1016.67 1016.92 1017.07 1017.25 1017.42 1017.45 1017.60 1017.80 1017.93 1018.06 1018.28 1018.38 1018.70 1019.06 1019.23
1017.37 1017.72 1018.99 1020.47 1021.79 1021.65 1021.14 1019.21 1016.37 1015.12 1014.75 1014.85 1014.72 1014.88 1015.46 1015.80 1016.16 1016.30 1016.58 1016.87 1017.15 1017.26 1017.40 1017.57 1017.58 1017.65 1017.63 1017.55 1017.45 1017.36 1017.13 1017.06 1017.01 1016.87 1016.83 1016.86 1017.16 1017.47 1017.60 1017.79 1017.98 1018.18 1018.36 1018.55 1018.69 1018.92 1019.15 1019.40 1019.68
1017.68 1018.04 1018.36 1019.73 1022.12 1022.04 1020.41 1018.56 1016.08 1015.07 1014.96 1014.88 1014.92 1015.16 1015.46 1015.69 1016.09 1016.21 1016.54 1016.93 1017.21 1017.42 1017.47 1017.56 1017.63 1017.68 1017.76 1017.73 1017.70 1017.60 1017.47 1017.37 1017.38 1017.36 1017.40 1017.54 1017.69 1017.87 1018.03 1018.15 1018.41 1018.68 1018.81 1018.86 1019.03 1019.39 1019.72 1019.86 1020.03
1017.60 1017.94 1018.73 1019.68 1021.35 1021.76 1020.07 1018.82 1016.80 1015.52 1014.99 1015.08 1015.39 1015.51 1015.54 1015.63 1016.00 1016.30 1016.65 1016.98 1017.14 1017.29 1017.58 1017.81 1017.74 1017.64 1017.78 1017.81 1017.87 1017.87 1017.92 1017.87 1017.93 1017.94 1018.06 1018.15 1018.32 1018.50 1018.60 1018.77 1018.92 1019.16 1019.33 1019.33 1019.61 1019.96 1020.12 1020.18 1020.39
1018.08 1018.05 1018.40 1019.08 1020.35 1020.36 1019.77 1017.78 1015.89 1015.44 1015.07 1015.17 1015.37 1015.52 1015.68 1015.78 1016.11 1016.33 1016.58 1016.84 1017.07 1017.38 1017.63 1017.69 1017.72 1017.79 1017.84 1017.80 1017.85 1018.00 1018.11 1018.08 1018.11 1018.32 1018.43 1018.51 1018.66 1018.88 1019.03 1019.20 1019.38 1019.62 1019.85 1019.96 1020.11 1020.36 1020.51 1020.65 1020.75
1018.35 1018.24 1018.37 1019.12 1020.07 1020.07 1019.29 1017.02 1015.48 1015.36 1015.17 1015.17 1015.31 1015.60 1015.83 1016.00 1016.19 1016.40 1016.55 1016.83 1017.16 1017.40 1017.51 1017.59 1017.66 1017.76 1017.89 1017.94 1018.01 1018.12 1018.22 1018.31 1018.42 1018.55 1018.64 1018.74 1018.91 1019.11 1019.23 1019.41 1019.72 1020.04 1020.24 1020.40 1020.53 1020.67 1020.96 1021.18 1021.23
Wind_Speed
6 2 2 5 5 6 1 2 2 2 1 1 4 6 7 2 4 4 1 4 12 11 6 9 12 14 14 14 14 13 12 12 11 10 10 10 10 10 10 10 10 9 9 9 9 9 9 8 9
2 2 4 3 6 3 5 3 5 3 4 7 5 3 3 2 2 6 8 6 11 11 7 8 12 13 14 14 13 12 11 11 10 10 9 8 8 9 8 8 9 8 8 8 7 8 8 8 8
2 2 4 5 4 5 5 4 5 2 7 2 4 4 3 5 1 11 4 11 9 7 7 7 11 13 15 14 13 12 10 10 10 9 9 8 7 7 5 7 9 8 8 7 7 6 7 7 7
3 4 5 5 4 4 4 4 5 6 2 1 4 5 1 2 7 6 10 13 11 8 7 10 13 14 14 13 12 11 11 11 9 9 8 8 7 6 6 5 6 7 7 6 5 5 5 5 6
4 3 3 2 3 2 4 3 5 5 4 2 1 4 2 2 4 11 12 11 11 7 6 6 11 14 14 13 12 11 10 10 8 8 7 6 6 7 4 4 4 4 4 4 3 3 4 5 6
4 3 4 2 4 2 2 4 4 3 2 3 4 5 3 0 9 9 10 9 7 8 6 5 7 10 11 11 11 10 10 10 9 8 8 6 6 5 4 4 2 4 2 2 1 1 2 4 6
6 4 4 2 3 1 5 7 5 5 4 4 8 5 1 4 5 7 8 7 8 6 6 5 5 6 9 9 9 9 9 10 10 8 8 8 6 5 4 3 2 3 3 3 3 3 4 4 6
5 5 4 3 3 5 4 6 3 6 4 2 3 4 4 5 8 8 7 7 6 5 5 6 7 4 4 5 7 6 5 6 8 7 6 6 6 6 5 4 4 4 5 5 4 5 6 7 7
2 5 3 4 6 3 3 4 1 1 6 1 2 4 2 11 11 8 5 4 5 5 6 6 6 5 5 5 4 5 6 6 6 6 7 6 3 4 5 4 5 7 7 6 6 6 6 7 7
4 4 8 4 5 2 2 2 7 3 3 2 2 3 6 12 12 12 11 11 10 10 6 6 6 6 5 3 4 4 4 3 4 4 5 4 4 4 4 5 6 5 6 7 8 8 8 5 3
3 5 4 3 3 3 2 3 3 8 3 7 8 6 9 11 10 10 8 7 11 6 5 7 7 6 6 5 4 2 2 2 2 5 4 4 3 3 3 2 3 3 4 3 5 5 3 4 4
4 3 2 2 1 4 5 5 4 5 3 4 5 11 11 12 13 12 10 8 8 7 8 7 7 7 7 4 4 4 3 3 3 4 5 3 3 3 4 3 4 3 3 4 4 3 5 5 5
3 3 1 1 2 1 4 2 5 5 2 3 8 10 13 12 11 7 7 7 7 8 8 8 8 8 7 6 4 4 5 4 5 4 5 4 4 4 3 4 4 4 3 4 4 4 4 5 5
5 3 1 1 1 1 3 2 4 1 2 5 8 9 8 11 12 6 7 9 9 9 9 8 9 8 7 7 6 5 4 5 4 4 5 6 5 4 4 4 4 4 4 4 4 4 4 4 4
3 4 2 2 1 1 2 2 5 1 2 5 6 5 6 7 7 12 10 10 11 10 9 10 10 9 9 8 7 5 5 5 5 5 6 7 6 6 5 4 4 5 4 5 4 4 3 4 3
4 4 3 1 3 0 4 7 3 3 3 6 6 6 7 7 9 6 7 7 7 7 9 8 9 10 10 9 6 5 5 5 5 4 5 7 7 7 5 5 5 4 4 4 4 4 4 4 4
6 3 4 2 3 2 3 7 3 3 3 5 5 6 7 6 8 8 8 8 7 8 7 8 8 9 10 9 6 6 6 6 5 5 6 7 7 7 7 6 5 4 4 4 4 3 4 3 5
6 4 4 4 2 2 3 8 2 2 1 3 6 6 6 7 10 6 7 7 7 7 7 7 6 7 6 4 3 3 4 6 5 6 7 7 5 6 6 5 5 4 4 4 5 6 4 5 5
5 3 3 1 2 3 5 7 8 5 3 7 8 8 8 9 5 5 4 2 4 5 5 7 7 7 5 3 3 3 6 4 6 6 7 6 6 7 6 4 4 5 6 7 6 3 5 4 3
3 4 2 0 2 2 2 10 8 7 7 8 9 9 10 4 4 4 3 2 4 2 2 1 5 5 6 4 3 3 3 3 3 4 6 8 7 7 6 6 6 6 4 5 5 6 3 3 3
1 5 3 1 1 3 3 7 4 4 5 5 8 7 6 9 8 7 7 4 0 2 3 4 4 3 4 4 2 2 1 0 1 3 3 5 6 7 7 7 5 5 4 4 4 5 6 3 2
4 4 5 5 3 3 2 7 6 1 7 7 9 6 8 7 6 5 5 3 2 1 2 3 3 4 4 2 3 5 5 4 3 3 3 3 6 6 6 5 5 5 4 4 4 4 3 3 3
3 5 5 4 4 2 2 2 9 3 6 9 3 3 7 6 5 5 5 5 2 3 3 3 3 4 5 4 2 3 4 3 1 2 4 3 2 3 5 5 5 5 3 3 4 3 3 2 2
7 6 7 5 3 2 5 5 6 5 6 2 2 4 3 5 6 5 4 4 3 3 4 4 5 4 5 5 4 2 4 4 3 3 3 3 1 1 1 2 2 2 1 2 3 3 3 2 3
2 6 3 2 1 6 1 1 7 10 5 3 5 2 3 5 4 4 4 3 4 4 4 3 5 4 5 5 5 4 4 5 5 5 3 4 3 2 2 3 3 2 3 3 2 4 4 2 2
4 4 7 6 4 3 2 8 8 5 4 6 7 5 4 4 3 4 4 3 3 4 4 4 4 4 4 4 4 4 5 2 2 2 1 2 2 3 2 4 4 5 4 4 4 3 4 4 4
3 2 1 8 1 3 5 7 11 4 4 1 4 5 6 5 4 4 4 3 2 0 1 1 2 2 4 4 5 5 5 6 4 5 4 3 4 3 4 5 5 5 5 5 5 4 4 4 3
4 6 2 2 3 5 4 4 6 5 6 2 4 6 5 4 4 2 1 1 1 1 1 2 1 0 1 2 3 3 4 4 4 4 5 5 4 4 5 5 5 6 5 5 5 4 4 5 3
3 3 2 4 3 5 1 6 7 6 6 7 7 6 5 5 4 3 3 2 2 2 3 3 2 2 2 0 1 2 3 4 4 5 4 4 4 4 5 5 5 5 5 5 5 5 5 5 4
2 2 4 4 5 3 2 7 3 7 7 6 7 5 3 4 5 4 4 3 3 3 3 3 3 3 3 2 1 1 2 2 3 4 4 4 5 5 5 5 6 5 5 5 5 5 5 5 5
Wind_Direction
339 42 105 47 57 63 265 248 315 105 117 112 121 143 177 115 165 205 91 131 128 141 145 144 151 146 137 132 134 136 133 130 130 128 126 123 116 113 110 107 103 98 97 93 91 86 80 69 58
335 146 42 81 87 71 267 246 187 205 149 122 84 71 86 140 92 118 126 150 137 144 145 149 150 147 140 145 142 140 140 142 141 139 136 132 121 123 124 122 114 106 100 97 93 86 79 66 52
139 47 87 95 110 178 212 214 159 134 165 83 96 48 133 163 126 154 134 136 129 135 146 151 153 154 149 154 154 149 148 151 154 153 151 145 137 126 118 84 126 120 101 94 89 82 72 58 48
55 17 37 92 214 240 208 202 158 132 247 92 124 80 40 251 158 179 139 135 135 143 152 163 161 161 161 162 161 157 159 161 164 163 162 158 145 126 130 108 82 107 104 95 87 74 57 50 42
38 60 63 86 254 250 246 188 168 143 143 113 142 171 46 47 115 132 140 141 147 151 154 161 161 166 165 164 162 163 169 168 167 167 173 166 153 154 151 131 115 90 100 95 83 61 31 15 14
48 95 69 214 255 263 231 158 148 137 128 150 89 127 154 121 136 146 141 137 135 148 148 151 160 166 165 166 165 170 174 175 173 174 171 174 171 175 156 124 159 152 132 129 107 351 341 343 347
117 95 194 183 262 266 189 143 161 163 146 237 152 128 289 186 153 141 136 128 135 141 146 146 162 165 162 166 170 182 197 191 174 183 180 180 183 195 206 171 165 191 213 252 245 256 276 302 318
105 94 135 229 207 252 188 167 163 152 200 106 162 184 217 196 143 116 109 117 122 136 147 161 167 154 159 171 183 196 201 187 179 186 182 182 193 207 225 232 243 249 246 258 248 244 260 280 292
127 69 176 217 153 238 142 151 88 125 118 165 147 152 304 132 126 123 122 128 144 166 169 168 173 172 175 184 200 200 207 202 195 191 196 193 196 224 235 242 248 261 266 269 271 269 270 275 290
90 129 214 193 178 203 196 187 164 138 122 227 190 74 106 135 149 158 169 177 184 186 183 178 176 181 178 184 184 202 205 211 199 196 200 195 207 219 222 240 261 273 278 282 281 282 284 306 285
156 182 199 222 177 174 213 192 171 125 240 215 196 150 149 152 162 169 180 187 192 189 186 187 181 181 179 190 180 188 196 201 213 205 201 207 210 231 245 247 265 266 273 269 280 289 282 274 269
142 224 192 146 279 166 177 137 175 187 204 331 210 150 153 169 179 181 185 186 177 184 198 190 188 184 189 183 184 185 183 194 214 214 214 203 217 229 240 245 254 260 255 262 254 258 265 270 266
161 191 188 127 72 56 119 165 178 220 329 36 124 152 167 174 186 190 189 185 182 197 197 199 185 192 195 192 190 182 195 192 209 210 212 200 213 223 223 234 239 238 249 243 254 250 259 269 277
187 139 150 343 271 89 165 201 168 238 92 105 155 176 175 183 188 173 186 199 195 203 203 193 197 198 183 196 192 201 190 205 202 205 215 211 211 218 217 232 235 240 222 241 237 244 250 256 260
118 122 56 224 241 222 161 272 228 89 113 146 188 190 197 196 186 205 202 207 203 209 204 195 198 193 193 203 199 196 206 195 207 214 210 211 209 220 223 225 229 229 227 236 241 251 252 260 244
99 58 129 264 163 289 112 254 244 356 163 192 204 222 226 224 224 216 213 211 202 199 200 197 204 197 200 201 196 194 197 202 210 206 210 212 212 209 209 226 238 222 222 220 226 234 247 244 248
7 170 193 285 208 132 136 243 244 40 168 228 231 236 241 260 262 249 238 227 213 211 205 204 199 204 204 210 200 198 199 211 212 205 216 217 212 208 213 222 235 215 221 225 233 245 223 254 262
178 192 216 206 206 147 168 251 266 196 59 256 271 264 261 261 252 264 265 248 228 214 206 200 198 209 199 190 187 196 203 218 212 218 219 210 215 209 215 225 226 210 221 237 228 228 218 236 251
135 136 149 226 356 164 214 264 237 233 274 260 260 262 254 250 266 253 259 319 237 235 224 215 197 203 157 154 172 201 226 220 228 220 218 206 210 210 209 217 218 214 233 245 230 212 231 246 213
119 125 174 323 20 140 55 271 260 255 239 215 223 237 241 236 237 236 229 23 59 47 26 278 243 213 204 190 181 173 172 200 191 194 207 215 215 212 210 216 221 210 223 240 234 209 213 229 185
110 151 169 208 86 68 336 288 269 256 273 268 253 242 242 233 230 235 244 251 335 58 18 2 349 309 244 217 146 122 113 106 174 205 229 224 208 212 206 213 209 210 207 228 231 222 205 215 225
165 186 127 125 95 233 6 273 294 303 284 270 265 252 258 255 243 217 215 169 112 84 28 358 339 347 358 284 199 199 222 223 217 204 200 213 209 221 214 219 211 216 207 221 228 221 209 181 215
196 130 115 87 78 12 340 47 275 353 288 265 324 313 275 242 221 209 135 137 78 49 36 14 13 30 5 357 318 234 232 231 237 245 254 243 211 211 214 206 204 211 208 229 235 201 188 188 232
148 90 58 52 57 340 216 167 266 237 219 356 14 32 80 103 110 111 108 116 101 42 35 32 34 30 15 15 5 315 264 265 254 240 234 224 139 91 40 135 156 114 115 160 177 156 172 209 250
166 125 42 311 217 234 6 254 264 271 235 263 313 242 128 124 121 135 134 103 89 69 39 36 35 29 8 14 22 8 311 266 251 250 221 189 165 163 112 110 119 102 94 75 60 83 90 64 54
173 201 152 194 208 267 341 237 242 237 292 274 260 164 158 151 160 163 138 101 68 54 49 34 33 19 10 14 10 11 18 8 340 331 282 159 132 116 88 91 88 84 78 72 70 70 69 66 61
197 209 140 103 94 36 231 292 299 239 245 330 199 164 183 176 191 179 145 133 139 120 68 38 9 359 9 11 9 14 19 28 37 44 57 74 84 93 80 78 79 63 59 60 67 68 63 71 64
158 173 114 14 130 239 267 272 245 285 268 167 196 215 197 179 179 176 162 213 228 278 272 243 232 345 337 4 22 28 25 36 40 52 62 70 60 56 69 70 75 70 63 67 81 75 62 82 58
151 196 105 121 145 203 270 260 220 245 237 211 220 216 210 194 188 182 194 227 230 251 259 286 296 285 291 326 28 32 35 47 62 75 77 81 83 81 84 89 88 80 71 61 76 71 53 62 56
311 224 155 150 218 244 225 266 239 245 265 220 216 209 202 196 193 197 204 209 223 246 262 262 273 277 279 272 161 103 102 86 93 92 85 86 93 84 98 97 95 91 79 67 75 74 56 44 32